AirNav   Everest Fuels
 
 947 users online  

KOQN Brandywine Regional Airport
West Chester, Pennsylvania, USA

GOING TO WEST CHESTER?


FAA INFORMATION EFFECTIVE 08 OCTOBER 2020

Location

FAA Identifier: OQN
Lat/Long: 39-59-24.4220N 075-34-54.8470W
39-59.407033N 075-34.914117W
39.9901172,-75.5819019
(estimated)
Elevation: 464.6 ft. / 142 m (estimated)
Variation: 12W (2000)
From city: 3 miles NE of WEST CHESTER, PA
Time zone: UTC -4 (UTC -5 during Standard Time)
Zip code: 19380

Airport Operations

Airport use: Open to the public
Activation date: 04/1946
Control tower: no
ARTCC: NEW YORK CENTER
FSS: WILLIAMSPORT FLIGHT SERVICE STATION
NOTAMs facility: IPT (NOTAM-D service available)
Attendance: 0800-1700
Wind indicator: lighted
Segmented circle: no
Lights: SS-SR
Beacon: white-green (lighted land airport)
Operates sunset to sunrise.
Landing fee: yes, LANDING FEE COML OPS ONLY.

Airport Communications

CTAF/UNICOM: 123.075
WX AWOS-3T: 121.4 ((610) 692-6190)
PHILADELPHIA APPROACH: 124.35
PHILADELPHIA DEPARTURE: 124.35
CLEARANCE DELIVERY: 125.6
WX AWOS-3 at MQS (13 nm W): 126.25 (610-384-6132)
WX ASOS at PTW (15 nm N): 119.425 (610-495-0823)
WX AWOS-3 at LOM (17 nm NE): 118.925 (215-646-1068)
WX ASOS at PHL (17 nm SE): PHONE 215-492-9617
WX ASOS at ILG (19 nm S): PHONE 302-328-1536
  • CLEARANCE DELIVERY PHILADELPHIA APCH TF 800-354-9884.

Nearby radio navigation aids

VOR radial/distance  VOR name  Freq  Var
MXEr052/6.0MODENA VORTAC113.2009W
PTWr193/14.0POTTSTOWN VORTAC116.5009W
DQOr014/18.8DUPONT VORTAC114.0010W
OODr339/24.8WOODSTOWN VORTAC112.8010W
LRPr112/33.5LANCASTER VOR/DME117.3009W
ARDr253/34.7YARDLEY VOR/DME108.2010W
ETXr181/35.8EAST TEXAS VOR/DME110.2009W
VCNr324/39.3CEDAR LAKE VOR/DME115.2010W

 
NDB name  Hdg/Dist  Freq  Var  ID
AMBLER251/15.927512WING .. -. --.

Airport Services

Fuel available: 100LL JET-A
Parking: tiedowns
Airframe service: MINOR
Powerplant service: MAJOR
Bottled oxygen: NONE
Bulk oxygen: NONE

Runway Information

Runway 9/27

Dimensions: 3347 x 50 ft. / 1020 x 15 m
Surface: asphalt, in good condition
Weight bearing capacity: 
Single wheel: 10.0
Runway edge lights: low intensity
RUNWAY 9  RUNWAY 27
Latitude: 39-59.342877N39-59.471165N
Longitude: 075-35.262638W075-34.565580W
Elevation: 453.3 ft.460.6 ft.
Traffic pattern: rightleft
Runway heading: 089 magnetic, 077 true269 magnetic, 257 true
Displaced threshold: 125 ft.249 ft.
Markings: nonprecision, in good conditionnonprecision, in good condition
Visual slope indicator: 2-light PAPI on left (4.20 degrees glide path)
PAPI OPS CONS.
2-light PAPI on left (3.00 degrees glide path)
PAPI OPS CONS.
Touchdown point: yes, no lightsyes, no lights
Obstructions: 7 ft. trees, 243 ft. from runway, 100 ft. left and right of centerline, 7:1 slope to clear
APCH RATIO 61:1 TO DSPLCD THLD.
17 ft. tree, 227 ft. from runway, 244 ft. right of centerline, 1:1 slope to clear
ROAD TRAVERSING THE 200 FT PRIMARY SFC AREA BYD EOR; ROAD RISES TO +13 FT AT A POINT 14 FT FROM EOR 265 FT R.

Airport Ownership and Management from official FAA records

Ownership: Privately-owned
Owner: BRANDYWINE REGIONAL AIRPORT, INC
1205 WARD AVE
WEST CHESTER, PA 19380
Phone 610-692-6100
Manager: JOHN KASSAB
1205 WARD AVE
WEST CHESTER, PA 19380
Phone 610-692-6100

Airport Operational Statistics

Aircraft based on the field: 118
Single engine airplanes: 95
Multi engine airplanes: 10
Jet airplanes: 2
Helicopters: 9
Gliders airplanes: 1
Ultralights: 1
    
Aircraft operations: avg 119/day *
58% local general aviation
39% transient general aviation
2% air taxi
<1% military
* for 12-month period ending 16 October 2018

Additional Remarks

A30A-27 CALM WIND RWY.
TFC DEP RWY 27 TURN R 10 DEG UNTIL REACHING 1200 FT MSL TO AVIOD MANSION L & HOMES R.
BIRDS & DEER ON & INVOF ARPT.
FOR SVC AFT HRS CTC 610-842-3804.
FULL LENGTH PARALLEL TWY S OF RWY.
FOR CD CTC PHILADELPHIA APCH AT 800-354-9884.

Instrument Procedures

NOTE: All procedures below are presented as PDF files. If you need a reader for these files, you should download the free Adobe Reader.

NOT FOR NAVIGATION. Please procure official charts for flight.
FAA instrument procedures published for use from 08 October 2020 at 0901Z to 05 November 2020 at 0900Z.

 
IAPs - Instrument Approach Procedures
RNAV (GPS) RWY 09   download (210KB)
RNAV (GPS) RWY 27   download (225KB)
VOR-A **CHANGED**   download (160KB)
NOTE: Special Take-Off Minimums/Departure Procedures apply   download (335KB)

Other nearby airports with instrument procedures:

N57 - New Garden Airport (13 nm SW)
KMQS - Chester County G O Carlson Airport (13 nm W)
N10 - Perkiomen Valley Airport (15 nm NE)
KPTW - Heritage Field Airport (15 nm N)
N47 - Pottstown Municipal Airport (17 nm N)
KLOM - Wings Field Airport (17 nm NE)
KPHL - Philadelphia International Airport (17 nm SE)
7N7 - Spitfire Aerodrome (17 nm SE)
KILG - New Castle Airport (19 nm S)
 
Loc | Ops | Rwys | IFR | FBO | Links
Com | Nav | Svcs | Stats | Notes
Area around KOQN (Brandywine Regional Airport)
 
Road maps at: MapQuest Bing Google
 
Aerial photo
WARNING: Photo may not be current or correct
Aerial photo of KOQN (Brandywine Regional Airport)
Photo courtesy of FlyinPhilsPhotos.com
Taken in 2009
looking east.

Do you have a better or more recent aerial photo of Brandywine Regional Airport that you would like to share? If so, please send us your photo.

 
Sectional chart

 
Airport distance calculator
Flying to Brandywine Regional Airport? Find the distance to fly.

From to KOQN

Sunrise and sunset
Times for 20-Oct-2020
 Local
(UTC-4)
 Zulu
(UTC)
Morning civil twilight06:5310:53
Sunrise07:2011:20
Sunset18:1422:14
Evening civil twilight18:4122:41

Current date and time
Zulu (UTC)  21-Oct-2020 02:56:10
Local (UTC-4)  20-Oct-2020 22:56:10
 
METAR
KOQN 210235Z AUTO 00000KT 10SM CLR 15/13 A3027 RMK AO2
KMQS 
13nm W 
210235Z AUTO 00000KT 4SM BR CLR 16/16 A3027 RMK AO2
KPTW 
15nm N 
210154Z AUTO 06003KT 8SM CLR 13/13 A3027 RMK AO2 SLP249 T01330128
KLOM 
17nm NE 
210235Z AUTO 00000KT 5SM BR CLR 12/12 A3026 RMK AO2 T01180118
KPHL 
18nm SE 
210154Z 12003KT 10SM SCT280 16/15 A3026 RMK AO2 SLP246 T01610150
KILG 
19nm S 
210241Z AUTO 00000KT 2SM BR BKN004 16/14 A3027 RMK AO2 VIS 3/4V5 T01560144
TAF
KPHL 
18nm SE 
202058Z 2021/2124 20005KT P6SM BKN250 FM210400 VRB02KT P6SM BKN025 FM210600 VRB02KT 6SM BR OVC010 FM210700 VRB02KT 2SM -DZ BR OVC003 FM211500 19005KT 6SM BR OVC008 FM211600 21007KT P6SM BKN015 FM211800 22007KT P6SM BKN035
KILG 
19nm S 
201725Z 2018/2118 22005KT P6SM SCT025 FM202200 18005KT P6SM FEW035 FM210400 VRB02KT P6SM BKN025 FM210600 VRB02KT 6SM BR OVC010 FM210700 VRB02KT 2SM -DZ BR OVC003 FM211500 16005KT 6SM BR OVC008 FM211600 21007KT P6SM BKN015
NOTAMs
Click for the latest NOTAMs
NOTAMs are issued by the DoD/FAA and will open in a separate window not controlled by AirNav.

 

 
 

FBO, Fuel Providers, and Aircraft Ground Support

  
 Business Name 
 
 Contact 
 
 Services / Description 
 
Fuel Prices
 
Comments
  
New Brandywine Aero 610-692-6100
no information available

If you are affiliated with New Brandywine Aero and would like to show here your services, contact info, web link, logo, and more, click here
100LL Jet A
FS $4.98 $3.55 
 Updated 19-Oct-2020
 
   write
FS=Full service
Update Fuel Prices
 

Would you like to see your business listed on this page?

 If your business provides an interesting product or service to pilots, flight crews, aircraft, or users of the Brandywine Regional Airport, you should consider listing it here.  To start the listing process, click on the button below
 
Add a business
 

Other Pages about Brandywine Regional Airport

koqn.net
 
Update a link
 
Copyright © AirNav, LLC. All rights reserved. Privacy Policy  Contact